Wind_Speed
22 16 16 19 13 10 11 6 5 2 3 7 4 5 12 20 20 20 21 21 22 22 22 21 22 21 20 19 19 19 18 17 14 13 9 8 8 10 10 9 12 6 4 4
20 20 20 18 14 9 6 11 10 2 4 7 12 10 9 19 19 21 22 21 21 22 23 23 23 23 22 22 21 20 20 18 18 13 13 12 10 11 11 9 9 8 7 4
22 21 19 22 11 13 15 16 13 8 11 16 14 14 11 16 21 20 21 22 22 23 26 25 25 25 23 23 24 23 22 21 19 15 16 13 12 14 14 13 10 8 6 6
22 18 25 12 15 16 19 15 8 6 12 13 6 11 13 7 16 17 21 24 25 25 25 28 27 27 27 25 25 24 24 24 21 21 16 16 10 11 11 13 12 10 6 8
16 19 22 14 19 18 19 18 7 12 14 17 18 9 8 14 9 16 17 22 26 28 28 28 29 28 26 25 26 26 25 26 23 23 19 17 14 11 9 9 9 10 11 8
18 3 8 16 20 22 21 20 12 16 15 15 18 17 14 8 17 12 20 20 23 29 31 28 27 27 27 25 25 25 26 27 26 25 24 22 17 13 11 10 9 8 7 9
16 14 14 15 13 14 13 18 15 16 15 14 19 17 16 3 6 5 8 11 21 26 33 31 30 30 29 29 27 24 26 29 28 27 26 23 19 17 13 12 10 10 9 9
12 18 23 18 16 18 17 17 15 20 16 16 20 19 6 9 15 4 7 8 3 20 31 35 33 31 30 30 29 27 29 27 27 27 28 26 22 16 13 13 12 11 11 11
15 15 10 4 10 14 19 19 17 20 21 16 18 14 8 4 8 14 11 3 7 15 26 36 36 33 32 31 30 32 33 29 26 25 26 25 23 20 15 15 14 12 10 16
13 10 14 11 13 17 17 17 14 12 20 19 16 18 11 10 3 5 8 6 7 11 21 31 35 35 33 31 30 31 34 33 29 25 24 23 23 22 19 17 16 13 14 12
10 12 12 2 12 14 12 15 18 19 13 13 14 14 17 17 9 10 11 7 3 12 20 27 34 35 35 32 32 31 30 30 30 27 24 23 22 22 20 19 16 15 17 13
10 10 12 14 11 9 12 16 16 13 19 14 15 16 7 4 3 5 5 9 8 9 17 24 31 34 36 34 34 33 32 32 30 28 26 24 23 22 23 21 19 19 17 13
12 9 13 11 16 15 9 16 17 20 19 20 15 13 11 8 8 10 9 10 6 7 13 19 28 34 36 36 36 36 36 32 30 30 27 26 24 25 23 21 20 20 17 15
6 13 17 15 19 5 21 11 12 17 12 16 18 19 15 16 15 11 11 7 8 10 13 18 25 31 34 36 36 37 34 32 32 31 29 29 26 24 21 20 19 18 16 15
13 15 15 18 21 22 20 19 17 17 17 18 19 21 17 15 8 12 7 11 11 12 14 19 23 30 33 34 35 35 32 32 32 34 31 29 26 26 25 22 21 18 17 16
12 14 15 17 18 20 24 25 22 21 21 19 17 16 19 16 5 6 10 12 14 15 14 18 23 27 31 32 33 32 33 34 35 35 30 28 30 26 25 23 21 19 17 16
15 13 14 17 17 15 17 21 22 22 23 24 15 13 3 7 11 10 10 8 9 11 13 15 23 27 28 29 28 29 31 32 33 34 32 33 31 29 27 24 21 20 18 15
17 14 12 13 14 17 18 16 16 18 16 18 15 9 11 9 13 14 6 9 13 13 11 14 18 24 27 26 27 27 30 35 35 35 37 36 34 32 29 24 25 23 19 16
15 13 11 12 14 17 17 14 11 13 17 15 20 6 8 13 18 2 8 11 13 14 13 11 14 19 23 25 27 30 33 35 38 41 40 38 35 31 29 28 27 24 20 17
10 12 11 12 15 16 13 8 7 9 13 10 16 10 10 16 11 10 16 15 15 13 10 8 9 16 20 22 26 32 34 41 42 43 42 37 33 31 28 29 28 24 19 17
9 9 12 12 12 15 11 7 4 11 4 9 10 9 10 8 8 12 14 15 15 12 10 5 5 13 18 22 25 30 34 39 40 42 38 34 34 31 27 28 27 24 22 20
12 12 12 12 16 19 7 8 9 8 7 7 7 10 10 10 12 13 15 14 14 13 9 6 2 5 12 19 27 29 33 37 40 40 36 36 32 29 31 32 30 25 23 19
12 12 12 16 13 2 5 5 9 11 12 10 7 12 11 16 13 13 15 15 12 13 9 5 2 5 8 19 25 28 36 39 36 36 34 35 33 32 32 30 26 23 21 18
16 17 14 17 17 21 21 16 16 12 16 10 12 13 13 13 16 20 14 17 14 12 9 7 7 8 11 17 23 29 32 34 38 35 31 30 31 28 26 27 24 21 20 20
15 19 18 18 17 21 25 23 21 21 10 9 13 15 16 17 16 17 17 16 13 9 9 7 6 7 9 16 24 24 31 36 32 33 32 32 26 26 22 21 22 19 18 20
21 19 15 16 20 22 22 23 23 25 21 15 18 21 17 16 18 18 19 17 17 12 9 8 6 8 11 14 21 24 31 32 34 31 32 27 26 23 21 20 19 21 19 23
Wind_Direction
215 236 241 251 253 149 268 355 311 81 56 288 297 274 182 180 201 195 198 196 194 198 195 194 193 192 192 192 194 196 193 195 197 205 210 203 198 202 203 213 223 221 198 194
241 223 250 251 273 294 256 268 267 202 155 279 279 281 184 172 200 204 199 198 200 193 186 191 192 191 193 194 195 196 195 198 198 200 203 209 192 204 199 198 212 197 178 185
232 239 226 253 264 254 256 264 278 315 318 270 258 275 176 173 181 201 203 202 202 198 189 192 195 195 194 194 195 197 196 199 198 195 211 189 194 199 208 191 188 176 178 179
247 242 261 263 255 265 263 263 337 302 270 284 302 302 224 152 180 189 202 203 202 201 202 188 197 198 198 198 199 199 198 197 202 191 202 194 197 198 206 202 205 210 221 219
236 238 250 243 260 254 263 288 317 295 281 279 271 255 135 195 185 188 199 206 205 200 203 196 196 199 199 199 202 203 202 201 200 205 196 203 194 196 202 203 213 220 217 203
260 321 278 265 257 251 265 271 266 257 259 260 265 274 271 127 193 208 175 191 209 206 201 206 196 197 197 197 198 200 202 203 199 207 196 201 205 199 190 190 197 203 204 219
222 227 225 252 265 252 246 249 251 245 236 245 251 246 255 189 185 323 94 159 189 208 198 202 197 195 196 195 194 194 198 201 201 205 205 201 200 197 198 193 189 198 208 205
252 220 212 212 236 261 227 244 253 254 258 262 251 245 222 250 273 320 269 163 228 196 203 198 202 198 195 196 194 194 197 199 199 203 205 203 197 202 202 209 203 199 205 210
278 252 240 262 273 233 250 257 264 274 273 272 279 283 264 259 284 268 257 354 173 205 203 197 200 199 194 197 195 194 201 203 202 199 200 199 200 193 205 211 200 208 198 216
286 297 291 261 216 251 266 278 263 230 260 271 273 267 264 252 150 289 270 73 148 205 201 199 199 200 195 197 197 196 204 208 205 194 196 197 200 199 201 200 205 201 200 200
304 285 273 192 253 255 208 237 251 273 281 267 254 255 260 243 194 248 278 111 205 194 195 201 199 200 199 198 198 196 196 194 197 192 193 194 198 201 200 202 200 195 211 219
347 308 296 286 284 232 289 280 231 236 247 256 281 287 252 329 280 191 348 312 298 221 202 199 198 197 198 196 196 197 197 196 194 192 193 193 193 196 199 199 196 204 214 222
344 289 299 269 241 204 229 250 263 276 280 273 271 267 259 295 284 247 277 303 317 254 217 204 197 195 195 195 195 196 198 196 192 190 193 192 191 196 197 197 204 207 213 216
288 267 275 286 312 204 300 300 285 278 277 276 270 274 271 281 275 276 308 15 314 280 241 219 201 198 196 198 197 194 195 194 190 191 191 192 188 192 185 189 197 203 208 217
246 275 287 291 295 298 289 287 283 278 280 283 296 299 303 302 347 15 338 306 312 287 253 220 212 199 198 198 196 194 194 191 190 190 187 189 185 185 187 197 200 203 210 216
274 284 282 269 272 273 280 280 278 273 274 275 279 280 282 294 331 315 318 317 308 294 266 233 215 206 204 203 198 193 189 189 187 184 182 184 186 185 198 194 203 209 207 210
280 283 280 275 288 290 275 257 257 269 274 274 268 278 360 313 319 323 307 321 311 312 281 253 224 216 208 205 198 195 187 185 185 179 184 187 188 190 195 197 205 202 204 209
260 257 272 277 276 269 272 298 282 294 291 302 298 310 309 332 293 287 91 337 316 310 293 265 240 219 211 207 200 192 187 183 184 183 191 194 190 191 196 200 198 196 201 204
243 251 262 266 260 271 274 269 286 273 270 286 289 284 322 320 308 173 20 342 327 318 304 278 240 222 211 205 194 189 187 184 186 191 192 191 188 193 197 196 192 194 196 194
270 235 246 256 272 278 305 3 23 327 278 293 5 17 357 324 295 45 347 347 344 341 330 303 240 210 202 199 191 188 188 193 193 195 191 189 186 194 196 196 197 197 200 193
227 235 252 245 256 268 282 307 14 266 331 3 354 350 343 343 335 327 338 343 348 345 351 336 250 212 200 196 192 189 193 196 197 193 188 185 192 198 205 200 201 200 188 182
275 263 247 247 254 262 5 315 250 342 330 354 327 333 326 323 328 344 342 342 348 352 2 357 253 198 191 190 194 193 194 197 196 191 191 190 195 193 195 202 198 189 178 185
255 253 272 282 282 331 314 284 292 307 309 306 327 311 315 313 324 335 339 340 351 354 348 344 274 227 204 209 209 201 202 198 195 189 191 190 189 188 196 197 193 186 184 177
270 258 262 269 264 283 297 296 299 297 278 304 303 305 311 309 316 310 325 339 335 340 335 310 288 266 236 204 202 211 206 202 194 198 189 187 188 194 193 190 193 190 185 183
281 297 281 269 276 277 273 276 282 283 263 279 289 298 302 300 306 309 290 320 323 321 314 311 284 256 241 219 211 213 207 191 188 195 188 190 185 188 189 184 193 186 193 191
264 267 267 272 281 287 289 294 299 298 291 270 289 293 294 296 297 304 308 285 297 295 287 305 290 266 239 222 218 212 201 194 193 190 191 183 192 185 185 185 191 183 199 196
Height
1478 1476 1474 1460 1451 1471 1461 1460 1468 1463 1464 1469 1465 1464 1464 1476 1483 1485 1490 1494 1498 1502 1506 1511 1516 1520 1524 1527 1531 1535 1538 1541 1543 1546 1546 1548 1550 1551 1552 1553 1552 1552 1553 1554
1473 1473 1462 1456 1452 1454 1462 1467 1466 1459 1461 1466 1460 1457 1452 1463 1473 1477 1483 1489 1492 1497 1502 1509 1513 1516 1520 1524 1528 1532 1535 1538 1541 1543 1544 1544 1547 1548 1550 1550 1551 1551 1551 1552
1470 1460 1460 1458 1457 1465 1464 1465 1463 1466 1461 1456 1453 1453 1449 1449 1463 1471 1476 1482 1487 1491 1495 1503 1509 1512 1517 1521 1524 1528 1531 1534 1537 1541 1542 1544 1545 1546 1547 1548 1549 1549 1550 1551
1463 1459 1457 1462 1465 1463 1467 1452 1456 1466 1470 1473 1448 1473 1442 1458 1456 1462 1468 1473 1479 1485 1489 1495 1502 1507 1511 1516 1521 1524 1527 1530 1532 1537 1539 1541 1544 1545 1546 1547 1548 1549 1550 1552
1465 1463 1461 1467 1464 1459 1465 1453 1459 1465 1469 1465 1456 1463 1448 1443 1456 1453 1460 1464 1470 1477 1483 1487 1494 1500 1506 1511 1515 1520 1524 1526 1529 1532 1537 1539 1541 1543 1544 1546 1547 1547 1548 1550
1462 1458 1461 1462 1458 1459 1459 1460 1460 1465 1467 1483 1459 1456 1450 1455 1458 1441 1443 1455 1462 1469 1478 1483 1489 1496 1501 1505 1510 1515 1519 1522 1526 1528 1532 1535 1538 1541 1542 1544 1546 1547 1548 1548
1463 1460 1464 1464 1464 1459 1461 1467 1483 1487 1480 1479 1443 1451 1441 1427 1436 1432 1437 1444 1453 1461 1469 1479 1483 1488 1495 1499 1505 1511 1514 1517 1519 1523 1527 1531 1535 1538 1541 1542 1543 1545 1547 1547
1462 1467 1454 1454 1461 1463 1456 1459 1472 1497 1483 1464 1431 1453 1436 1425 1429 1432 1434 1441 1447 1453 1460 1469 1477 1483 1490 1495 1500 1506 1509 1511 1515 1518 1522 1527 1532 1536 1539 1539 1542 1543 1544 1544
1467 1463 1445 1452 1454 1457 1459 1463 1444 1457 1447 1457 1442 1425 1424 1422 1429 1433 1432 1436 1442 1449 1453 1461 1471 1477 1484 1491 1496 1500 1503 1507 1511 1515 1520 1524 1528 1532 1535 1536 1540 1542 1542 1541
1465 1477 1453 1450 1454 1455 1455 1447 1459 1455 1487 1487 1454 1444 1438 1426 1428 1430 1430 1432 1439 1446 1450 1456 1464 1472 1479 1487 1492 1497 1499 1503 1507 1512 1516 1520 1524 1527 1531 1533 1535 1538 1539 1540
1465 1465 1461 1451 1455 1457 1453 1459 1452 1448 1445 1464 1468 1451 1413 1415 1419 1429 1429 1432 1438 1443 1446 1451 1458 1467 1475 1481 1487 1492 1496 1499 1502 1508 1512 1517 1521 1524 1527 1529 1531 1534 1533 1534
1468 1469 1467 1454 1437 1438 1440 1441 1442 1461 1467 1453 1452 1444 1412 1418 1421 1425 1432 1437 1440 1441 1444 1445 1451 1460 1468 1475 1480 1485 1489 1493 1498 1504 1508 1512 1516 1520 1523 1525 1527 1527 1528 1531
1477 1472 1474 1460 1441 1435 1448 1445 1442 1439 1436 1448 1456 1444 1414 1418 1421 1425 1431 1437 1440 1443 1443 1445 1448 1454 1461 1467 1473 1478 1482 1488 1495 1499 1504 1508 1512 1515 1518 1521 1522 1524 1525 1527
1490 1476 1474 1477 1460 1468 1468 1448 1445 1444 1452 1446 1440 1435 1424 1423 1425 1427 1431 1434 1440 1442 1444 1445 1446 1450 1456 1462 1466 1471 1476 1483 1489 1494 1498 1503 1507 1511 1515 1519 1522 1524 1525 1526
1481 1479 1471 1466 1459 1455 1455 1452 1449 1451 1446 1452 1441 1436 1427 1423 1423 1429 1436 1439 1440 1440 1441 1443 1445 1448 1453 1458 1461 1465 1472 1478 1484 1488 1495 1499 1504 1508 1512 1515 1516 1521 1522 1524
1475 1479 1474 1476 1464 1459 1459 1450 1444 1442 1439 1436 1436 1438 1428 1426 1428 1433 1437 1439 1441 1440 1438 1439 1442 1445 1449 1454 1458 1462 1467 1473 1479 1484 1492 1495 1499 1504 1507 1511 1514 1518 1521 1522
1479 1478 1478 1478 1460 1459 1465 1449 1441 1439 1432 1428 1436 1428 1425 1430 1431 1434 1438 1442 1443 1441 1438 1436 1437 1441 1446 1451 1456 1460 1465 1471 1476 1481 1486 1488 1493 1498 1502 1506 1511 1515 1518 1520
1474 1475 1474 1475 1467 1486 1448 1433 1431 1432 1427 1424 1422 1423 1428 1434 1435 1435 1438 1442 1442 1440 1438 1436 1433 1436 1441 1448 1452 1457 1462 1466 1470 1476 1477 1480 1485 1489 1495 1499 1503 1507 1512 1515
1464 1467 1472 1476 1469 1455 1446 1437 1434 1434 1434 1426 1424 1424 1431 1437 1437 1436 1442 1442 1441 1437 1434 1432 1431 1433 1437 1443 1447 1452 1457 1461 1464 1466 1470 1475 1481 1485 1490 1493 1498 1502 1504 1510
1456 1455 1465 1466 1474 1474 1443 1432 1439 1439 1450 1434 1434 1432 1442 1444 1434 1436 1443 1442 1440 1436 1431 1430 1430 1431 1434 1439 1443 1447 1452 1453 1456 1459 1463 1471 1477 1483 1487 1490 1493 1496 1502 1505
1461 1465 1465 1460 1464 1451 1436 1436 1440 1459 1452 1444 1446 1447 1448 1446 1448 1445 1444 1442 1440 1437 1433 1430 1430 1431 1433 1438 1441 1444 1449 1451 1453 1455 1465 1470 1473 1478 1486 1489 1494 1497 1494 1495
1462 1461 1456 1451 1458 1462 1438 1439 1449 1443 1446 1447 1451 1451 1451 1449 1446 1445 1444 1442 1440 1436 1432 1432 1432 1433 1434 1437 1435 1442 1446 1447 1450 1457 1462 1465 1471 1476 1480 1484 1488 1491 1494 1498
1459 1454 1457 1451 1443 1442 1444 1443 1445 1447 1449 1450 1453 1453 1451 1449 1446 1445 1443 1440 1439 1435 1433 1432 1432 1433 1433 1435 1437 1439 1440 1444 1452 1457 1461 1462 1466 1470 1474 1482 1488 1494 1498 1494
1449 1449 1450 1451 1447 1444 1444 1444 1445 1447 1448 1449 1452 1451 1449 1448 1448 1445 1442 1441 1439 1437 1435 1432 1432 1432 1432 1433 1434 1437 1441 1445 1450 1454 1460 1464 1468 1473 1475 1480 1486 1489 1492 1498
1455 1451 1447 1444 1446 1448 1447 1447 1447 1445 1445 1449 1451 1451 1449 1447 1445 1444 1440 1440 1439 1437 1437 1433 1431 1432 1431 1431 1433 1436 1439 1443 1447 1451 1456 1459 1466 1470 1476 1481 1483 1487 1491 1494
1455 1451 1450 1443 1445 1445 1444 1446 1449 1448 1446 1447 1448 1448 1447 1446 1443 1440 1437 1436 1440 1438 1434 1433 1430 1430 1430 1430 1432 1435 1438 1441 1443 1448 1451 1457 1461 1467 1474 1479 1481 1484 1490 1492